Plymouth, NH

2:07 AM EDT on April 30, 2017 (GMT -0400)
Plymouth

Weather History for K1P1 - November, 2013

Change the Weather History Date:

Tuesday, November 12, 2013

  Actual Average (KLCI) Record (KLCI)
Temperature  
Mean Temperature 32 °F -  
Max Temperature 36 °F 47 °F 66 °F (2012)
Min Temperature 26 °F 33 °F 19 °F (1999)
Degree Days  
Heating Degree Days 34    
Moisture  
Dew Point 20 °F    
Average Humidity 67    
Maximum Humidity 91    
Minimum Humidity 55    
Precipitation  
Precipitation 0.00 in - - ()
Sea Level Pressure  
Sea Level Pressure 30.04 in    
Wind  
Wind Speed 8 mph (WNW)    
Max Wind Speed 16 mph    
Max Gust Speed 28 mph    
Visibility 10 miles    
Events Rain , Snow    
Averages and records for this station are not official NWS values.
T = Trace of Precipitation, MM = Missing Value Source: NWS Daily Summary

Daily Weather History Graph

Daily Weather History Graph

Search for Another Location

Airport or City:

Trip Planner

Search our weather history database for the weather conditions in past years. The results will help you decide how hot, cold, wet, or windy it might be!

Date:

Astronomy

Nov. 12, 2013 Rise Set
Actual Time 6:37 AM EST 4:24 PM EST
Civil Twilight 6:06 AM EST 4:54 PM EST
Nautical Twilight 5:32 AM EST 5:29 PM EST
Astronomical Twilight 4:58 AM EST 6:03 PM EST
Moon 1:45 PM EST (11/12) 1:14 AM EST (11/12)
Length of Visible Light 10h 47m
Length of Day
9h 46m
Waxing Gibbous, 76% of the Moon is Illuminated
Nov 12
Waxing Gibbous
Nov 17
Full
Nov 25
Last Quarter
Dec 2
New
Dec 9
First Quarter

Hourly Weather History & Observations

Time (EST) Temp. Windchill Dew Point Humidity Pressure Visibility Wind Dir Wind Speed Gust Speed Precip Events Conditions
12:15 AM 36.5 °F - 32.7 °F 86% 29.83 in 10.0 mi Calm Calm - N/A   Light Drizzle
12:35 AM 36.5 °F - 33.3 °F 88% 29.83 in 10.0 mi Calm Calm - N/A   Light Drizzle
12:55 AM 36.5 °F - 33.6 °F 89% 29.83 in 10.0 mi Calm Calm - N/A   Light Drizzle
1:15 AM 36.5 °F - 33.8 °F 90% 29.82 in 10.0 mi Calm Calm - N/A   Light Drizzle
1:35 AM 36.5 °F 33.9 °F 33.8 °F 90% 29.83 in 10.0 mi ENE 3.5 mph - N/A   Overcast
1:55 AM 36.1 °F - 33.8 °F 91% 29.83 in 10.0 mi Calm Calm - N/A   Light Drizzle
2:15 AM 35.8 °F 27.8 °F 32.0 °F 86% 29.87 in 3.0 mi WNW 11.5 mph 26.5 mph N/A Rain Light Rain
2:35 AM 33.4 °F 26.6 °F 31.1 °F 91% 29.89 in 3.0 mi West 8.1 mph - N/A Snow Light Snow
2:55 AM 33.1 °F 26.1 °F 30.0 °F 89% 29.90 in 7.0 mi WNW 8.1 mph - N/A Snow Light Snow
3:15 AM 32.4 °F 26.9 °F 29.3 °F 88% 29.91 in 5.0 mi WNW 5.8 mph - N/A Snow Light Snow
3:35 AM 32.0 °F 25.6 °F 29.3 °F 90% 29.92 in 4.0 mi NW 6.9 mph - N/A Snow Light Snow
3:55 AM 32.0 °F 26.4 °F 28.4 °F 87% 29.92 in 10.0 mi NW 5.8 mph - N/A Snow Light Snow
4:35 AM 31.8 °F 24.6 °F 27.3 °F 83% 29.93 in 10.0 mi WNW 8.1 mph - N/A   Overcast
4:55 AM 31.6 °F 25.1 °F 26.4 °F 81% 29.94 in 10.0 mi NW 6.9 mph - N/A   Overcast
5:15 AM 31.5 °F 22.9 °F 24.3 °F 75% 29.95 in 10.0 mi WNW 10.4 mph - N/A   Overcast
5:35 AM 31.1 °F 21.4 °F 22.1 °F 69% 29.95 in 10.0 mi NW 12.7 mph 19.6 mph N/A   Overcast
5:55 AM 30.6 °F 22.4 °F 21.6 °F 69% 29.96 in 10.0 mi NW 9.2 mph 16.1 mph N/A   Mostly Cloudy
6:15 AM 30.2 °F 23.4 °F 20.8 °F 68% 29.98 in 10.0 mi NW 6.9 mph - N/A   Mostly Cloudy
6:35 AM 29.3 °F 20.2 °F 20.3 °F 69% 29.99 in 10.0 mi NW 10.4 mph 16.1 mph N/A   Mostly Cloudy
6:55 AM 28.9 °F 19.2 °F 19.0 °F 67% 30.00 in 10.0 mi NNW 11.5 mph 17.3 mph N/A   Overcast
7:15 AM 28.8 °F 19.0 °F 19.0 °F 67% 30.02 in 10.0 mi NNW 11.5 mph - N/A   Overcast
7:35 AM 28.6 °F 21.5 °F 19.6 °F 69% 30.02 in 10.0 mi NW 6.9 mph - N/A   Overcast
7:55 AM 28.4 °F 18.5 °F 19.8 °F 70% 30.03 in 10.0 mi NW 11.5 mph - N/A   Overcast
8:15 AM 28.4 °F 20.4 °F 20.3 °F 72% 30.03 in 10.0 mi WNW 8.1 mph - N/A   Overcast
8:35 AM 28.4 °F 19.7 °F 20.8 °F 73% 30.04 in 10.0 mi West 9.2 mph 16.1 mph N/A   Overcast
8:55 AM 27.7 °F 19.6 °F 19.6 °F 72% 30.05 in 10.0 mi WNW 8.1 mph 21.9 mph N/A   Overcast
9:15 AM 27.9 °F 18.4 °F 19.2 °F 70% 30.06 in 10.0 mi WNW 10.4 mph 18.4 mph N/A   Overcast
9:35 AM 28.0 °F 19.3 °F 18.5 °F 67% 30.07 in 10.0 mi WNW 9.2 mph 17.3 mph N/A   Overcast
9:55 AM 27.9 °F 15.9 °F 17.1 °F 64% 30.07 in 10.0 mi WNW 16.1 mph - N/A   Overcast
10:15 AM 27.5 °F 16.8 °F 18.0 °F 67% 30.07 in 10.0 mi West 12.7 mph 19.6 mph N/A   Mostly Cloudy
10:35 AM 27.3 °F 18.4 °F 18.3 °F 69% 30.07 in 10.0 mi West 9.2 mph 17.3 mph N/A   Overcast
10:55 AM 27.1 °F 18.9 °F 18.1 °F 69% 30.07 in 10.0 mi WNW 8.1 mph - N/A   Overcast
11:15 AM 27.5 °F 20.2 °F 18.1 °F 68% 30.07 in 10.0 mi West 6.9 mph - N/A   Mostly Cloudy
11:35 AM 29.1 °F 21.3 °F 17.8 °F 63% 30.07 in 10.0 mi West 8.1 mph 17.3 mph N/A   Mostly Cloudy
11:55 AM 29.8 °F 20.3 °F 17.4 °F 60% 30.07 in 10.0 mi West 11.5 mph 20.7 mph N/A   Mostly Cloudy
12:15 PM 30.7 °F 23.3 °F 18.3 °F 60% 30.06 in 10.0 mi West 8.1 mph 16.1 mph N/A   Overcast
12:35 PM 30.2 °F 20.8 °F 18.0 °F 60% 30.07 in 10.0 mi WNW 11.5 mph 18.4 mph N/A   Overcast
12:55 PM 29.7 °F 20.1 °F 17.8 °F 61% 30.06 in 10.0 mi WNW 11.5 mph 18.4 mph N/A   Overcast
1:15 PM 30.2 °F 20.8 °F 17.8 °F 60% 30.06 in 10.0 mi WNW 11.5 mph 21.9 mph N/A   Overcast
1:35 PM 30.6 °F 21.2 °F 18.0 °F 60% 30.07 in 10.0 mi West 11.5 mph 24.2 mph N/A   Overcast
1:55 PM 30.4 °F 19.1 °F 17.1 °F 58% 30.07 in 10.0 mi WNW 16.1 mph 24.2 mph N/A   Overcast
2:15 PM 31.5 °F 20.5 °F 17.2 °F 56% 30.07 in 10.0 mi WNW 16.1 mph 23.0 mph N/A   Overcast
2:35 PM 32.0 °F 21.6 °F 17.4 °F 55% 30.07 in 10.0 mi NW 15.0 mph 21.9 mph N/A   Mostly Cloudy
2:55 PM 31.5 °F 22.3 °F 16.9 °F 55% 30.08 in 10.0 mi WNW 11.5 mph 19.6 mph N/A   Overcast
3:15 PM 30.6 °F 20.2 °F 17.1 °F 57% 30.09 in 10.0 mi West 13.8 mph 24.2 mph N/A   Overcast
3:35 PM 30.2 °F 19.8 °F 16.2 °F 56% 30.10 in 10.0 mi West 13.8 mph 21.9 mph N/A   Overcast
3:55 PM 29.8 °F 19.8 °F 15.8 °F 56% 30.10 in 10.0 mi WNW 12.7 mph 19.6 mph N/A   Overcast
4:15 PM 29.7 °F 19.1 °F 15.1 °F 55% 30.11 in 10.0 mi WNW 13.8 mph 23.0 mph N/A   Overcast
4:35 PM 29.5 °F 19.9 °F 15.1 °F 55% 30.12 in 10.0 mi NW 11.5 mph 25.3 mph N/A   Overcast
4:55 PM 29.3 °F 20.8 °F 15.8 °F 57% 30.12 in 10.0 mi NW 9.2 mph - N/A   Overcast
5:15 PM 29.3 °F 21.5 °F 17.1 °F 60% 30.13 in 10.0 mi WNW 8.1 mph - N/A   Overcast
5:35 PM 29.3 °F 22.3 °F 17.6 °F 62% 30.13 in 10.0 mi WNW 6.9 mph - N/A   Overcast
5:55 PM 29.1 °F 20.0 °F 17.4 °F 62% 30.13 in 10.0 mi WNW 10.4 mph 17.3 mph N/A   Overcast
6:15 PM 29.3 °F 19.6 °F 16.9 °F 60% 30.13 in 10.0 mi WNW 11.5 mph 16.1 mph N/A   Overcast
6:35 PM 29.1 °F 19.4 °F 16.5 °F 59% 30.13 in 10.0 mi WNW 11.5 mph 19.6 mph N/A   Overcast
6:55 PM 29.1 °F 18.9 °F 16.2 °F 58% 30.13 in 10.0 mi West 12.7 mph 23.0 mph N/A   Overcast
7:15 PM 28.9 °F 18.6 °F 15.8 °F 58% 30.12 in 10.0 mi WNW 12.7 mph 25.3 mph N/A   Mostly Cloudy
7:35 PM 28.6 °F 18.2 °F 15.6 °F 58% 30.13 in 10.0 mi WNW 12.7 mph 20.7 mph N/A   Scattered Clouds
7:55 PM 28.4 °F 17.5 °F 15.8 °F 59% 30.13 in 10.0 mi WNW 13.8 mph 24.2 mph N/A   Mostly Cloudy
8:15 PM 28.2 °F 16.3 °F 14.9 °F 57% 30.13 in 10.0 mi WNW 16.1 mph 27.6 mph N/A   Scattered Clouds
8:35 PM 28.0 °F 17.0 °F 14.9 °F 58% 30.14 in 10.0 mi WNW 13.8 mph 27.6 mph N/A   Scattered Clouds
8:55 PM 27.5 °F 17.4 °F 15.1 °F 60% 30.14 in 10.0 mi NW 11.5 mph 20.7 mph N/A   Scattered Clouds
9:15 PM 27.9 °F 18.4 °F 15.4 °F 60% 30.16 in 10.0 mi WNW 10.4 mph 18.4 mph N/A   Mostly Cloudy
9:35 PM 27.7 °F 18.2 °F 15.3 °F 60% 30.16 in 10.0 mi WNW 10.4 mph 17.3 mph N/A   Mostly Cloudy
9:55 PM 27.5 °F 18.6 °F 15.6 °F 61% 30.16 in 10.0 mi WNW 9.2 mph 18.4 mph N/A   Overcast
10:15 PM 27.5 °F 18.0 °F 15.6 °F 61% 30.16 in 10.0 mi WNW 10.4 mph - N/A   Overcast
10:35 PM 27.3 °F 16.1 °F 15.4 °F 61% 30.15 in 10.0 mi WNW 13.8 mph 17.3 mph N/A   Mostly Cloudy
10:55 PM 27.3 °F 16.1 °F 14.9 °F 60% 30.15 in 10.0 mi WNW 13.8 mph 24.2 mph N/A   Mostly Cloudy
11:15 PM 27.3 °F 16.1 °F 14.4 °F 58% 30.15 in 10.0 mi NW 13.8 mph 26.5 mph N/A   Mostly Cloudy
11:35 PM 27.0 °F 15.2 °F 14.4 °F 59% 30.15 in 10.0 mi WNW 15.0 mph 26.5 mph N/A   Mostly Cloudy
11:55 PM 26.6 °F 16.8 °F 14.5 °F 60% 30.15 in 10.0 mi WNW 10.4 mph 18.4 mph N/A   Mostly Cloudy